Location: Cuiry
(49.3858°N, 3.7708°E)
Time: 22:20:42
(UTC+00:00)

CZ-2D R/B - Pass Details

Date: 12 January 2026
Orbit: 525 x 595 km, 98.0° (Epoch: 7 February)

Event Time Altitude Azimuth Distance (km) Brightness Sun altitude
Rises 17:02:53 0° 130° (SE) 2,684 6.6 -8.4°
Reaches altitude 10° 17:05:20 10° 115° (ESE) 1,788 5.5 -8.8°
Maximum altitude 17:08:20 22° 64° (ENE) 1,193 4.4 -9.3°
Drops below altitude 10° 17:11:20 10° 13° (NNE) 1,783 5.6 -9.7°
Sets 17:13:45 0° 358° (N) 2,675 6.6 -10.1°
